Location: Marcé
(47.5801°N, 0.3280°W)
Time: 07:13:05
(UTC+01:00)

Altair - Pass Details

Date: 11 December 2021
Orbit: 1501 x 1683 km, 47.2° (Epoch: 21 January)

Event Time Altitude Azimuth Distance (km) Brightness Sun altitude
Rises 19:33:51 0° 286° (WNW) 4,731 11.1 -23.2°
Reaches altitude 10° 19:36:58 10° 284° (WNW) 3,725 10.4 -23.7°
Maximum altitude 19:46:10 65° 206° (SSW) 1,639 7.7 -25.3°
Enters shadow 19:51:30 28° 134° (SE) 2,535 8.3 -26.2°
Drops below altitude 10° 19:55:10 10° 127° (SE) 3,646 - -26.8°
Sets 19:58:12 0° 124° (SE) 4,627 - -27.3°
